Weather reports worldwide

Advertisment
Arezzo, Italy (16172): temperature & dewpoint: 09.08.2020 21:00:00 - 15.08.2020 21:00:00 (CEST)Arezzo, Italy (16172): wind speed: 09.08.2020 21:00:00 - 15.08.2020 21:00:00 (CEST)Arezzo, Italy (16172): wind direction: 09.08.2020 21:00:00 - 15.08.2020 21:00:00 (CEST)Arezzo, Italy (16172): reduced air pressure: 09.08.2020 21:00:00 - 15.08.2020 21:00:00 (CEST)Arezzo, Italy (16172): visibility: 09.08.2020 21:00:00 - 15.08.2020 21:00:00 (CEST)
Date & Time tt [°C] td [°C] ff [km/h] ff [kn] dd ppp [hPa] vv [km]
15.08.2020 21:00:00 - - - - - - -
15.08.2020 20:00:00 30,0 17,5 15 8 W 1008,8 20
15.08.2020 19:00:00 - - - - - - -
15.08.2020 18:00:00 - - - - - - -
15.08.2020 17:00:00 31,0 15,0 5 3 SE 1008,9 20
15.08.2020 16:00:00 - - - - - - -
15.08.2020 15:00:00 - - - - - - -
15.08.2020 14:00:00 32,4 15,9 9 5 SW 1010,6 20
15.08.2020 13:00:00 - - - - - - -
15.08.2020 12:00:00 - - - - - - -
15.08.2020 11:00:00 27,0 20,6 0 0 N 1012,1 20
15.08.2020 10:00:00 - - - - - - -
15.08.2020 09:00:00 - - - - - - -
15.08.2020 08:00:00 19,0 18,2 4 2 WSW 1012,4 16
15.08.2020 07:00:00 - - - - - - -
15.08.2020 06:00:00 - - - - - - -
15.08.2020 05:00:00 - - - - - - -
15.08.2020 04:00:00 - - - - - - -
15.08.2020 03:00:00 - - - - - - -
15.08.2020 02:00:00 - - - - - - -
15.08.2020 01:00:00 - - - - - - -
15.08.2020 00:00:00 - - - - - - -
14.08.2020 23:00:00 - - - - - - -
14.08.2020 22:00:00 - - - - - - -
14.08.2020 21:00:00 - - - - - - -
14.08.2020 20:00:00 27,4 21,0 11 6 SSW 1009,5 18
14.08.2020 19:00:00 - - - - - - -
14.08.2020 18:00:00 - - - - - - -
14.08.2020 17:00:00 33,0 14,6 5 3 NNE 1008,9 18
14.08.2020 16:00:00 - - - - - - -
14.08.2020 15:00:00 - - - - - - -
14.08.2020 14:00:00 32,6 14,2 8 4 S 1011,0 20
14.08.2020 13:00:00 - - - - - - -
14.08.2020 12:00:00 - - - - - - -
14.08.2020 11:00:00 29,2 13,8 4 2 SW 1012,9 20
14.08.2020 10:00:00 - - - - - - -
14.08.2020 09:00:00 - - - - - - -
14.08.2020 08:00:00 18,8 16,4 0 0 N 1013,9 17
14.08.2020 07:00:00 - - - - - - -
14.08.2020 06:00:00 - - - - - - -
14.08.2020 05:00:00 - - - - - - -
14.08.2020 04:00:00 - - - - - - -
14.08.2020 03:00:00 - - - - - - -
14.08.2020 02:00:00 - - - - - - -
14.08.2020 01:00:00 - - - - - - -
14.08.2020 00:00:00 - - - - - - -
13.08.2020 23:00:00 - - - - - - -
13.08.2020 22:00:00 - - - - - - -
13.08.2020 21:00:00 - - - - - - -
13.08.2020 20:00:00 31,0 11,9 13 7 S 1012,1 20
13.08.2020 19:00:00 - - - - - - -
13.08.2020 18:00:00 - - - - - - -
13.08.2020 17:00:00 35,2 10,3 15 8 S 1012,4 20
13.08.2020 16:00:00 - - - - - - -
13.08.2020 15:00:00 - - - - - - -
13.08.2020 14:00:00 34,6 12,3 13 7 S 1014,3 20
13.08.2020 13:00:00 - - - - - - -
13.08.2020 12:00:00 - - - - - - -
13.08.2020 11:00:00 29,2 15,0 4 2 S 1015,7 20
13.08.2020 10:00:00 - - - - - - -
13.08.2020 09:00:00 - - - - - - -
13.08.2020 08:00:00 19,0 17,3 0 0 N 1016,3 17
13.08.2020 07:00:00 - - - - - - -
13.08.2020 06:00:00 - - - - - - -
13.08.2020 05:00:00 - - - - - - -
13.08.2020 04:00:00 - - - - - - -
13.08.2020 03:00:00 - - - - - - -
13.08.2020 02:00:00 - - - - - - -
13.08.2020 01:00:00 - - - - - - -
13.08.2020 00:00:00 - - - - - - -
12.08.2020 23:00:00 - - - - - - -
12.08.2020 22:00:00 - - - - - - -
12.08.2020 21:00:00 - - - - - - -
12.08.2020 20:00:00 32,6 12,8 8 4 WSW 1012,9 20
12.08.2020 19:00:00 - - - - - - -
12.08.2020 18:00:00 - - - - - - -
12.08.2020 17:00:00 35,0 10,8 9 5 SW 1013,3 20
12.08.2020 16:00:00 - - - - - - -
12.08.2020 15:00:00 - - - - - - -
12.08.2020 14:00:00 34,6 11,7 5 3 ESE 1014,4 20
12.08.2020 13:00:00 - - - - - - -
12.08.2020 12:00:00 - - - - - - -
12.08.2020 11:00:00 29,6 15,7 5 3 W 1015,1 20
12.08.2020 10:00:00 - - - - - - -
12.08.2020 09:00:00 - - - - - - -
12.08.2020 08:00:00 19,6 17,9 0 0 N 1016,0 18
12.08.2020 07:00:00 - - - - - - -
12.08.2020 06:00:00 - - - - - - -
12.08.2020 05:00:00 - - - - - - -
12.08.2020 04:00:00 - - - - - - -
12.08.2020 03:00:00 - - - - - - -
12.08.2020 02:00:00 - - - - - - -
12.08.2020 01:00:00 - - - - - - -
12.08.2020 00:00:00 - - - - - - -
11.08.2020 23:00:00 - - - - - - -
11.08.2020 22:00:00 - - - - - - -
11.08.2020 21:00:00 - - - - - - -
11.08.2020 20:00:00 32,2 13,4 9 5 W 1012,7 20
11.08.2020 19:00:00 - - - - - - -
11.08.2020 18:00:00 - - - - - - -
11.08.2020 17:00:00 35,4 11,8 16 9 WNW 1012,4 20
11.08.2020 16:00:00 - - - - - - -
11.08.2020 15:00:00 - - - - - - -
11.08.2020 14:00:00 35,2 14,0 5 3 SW 1014,0 20
11.08.2020 13:00:00 - - - - - - -
11.08.2020 12:00:00 - - - - - - -
11.08.2020 11:00:00 29,8 17,3 4 2 SSW 1015,0 20
11.08.2020 10:00:00 - - - - - - -
11.08.2020 09:00:00 - - - - - - -
11.08.2020 08:00:00 20,6 18,2 4 2 SE 1015,0 18
11.08.2020 07:00:00 - - - - - - -
11.08.2020 06:00:00 - - - - - - -
11.08.2020 05:00:00 - - - - - - -
11.08.2020 04:00:00 - - - - - - -
11.08.2020 03:00:00 - - - - - - -
11.08.2020 02:00:00 - - - - - - -
11.08.2020 01:00:00 - - - - - - -
11.08.2020 00:00:00 - - - - - - -
10.08.2020 23:00:00 - - - - - - -
10.08.2020 22:00:00 - - - - - - -
10.08.2020 21:00:00 - - - - - - -
10.08.2020 20:00:00 32,4 15,4 111 60 E 1011,5 20
10.08.2020 19:00:00 - - - - - - -
10.08.2020 18:00:00 - - - - - - -
10.08.2020 17:00:00 35,4 8,3 11 6 SE 1011,5 20
10.08.2020 16:00:00 - - - - - - -
10.08.2020 15:00:00 - - - - - - -
10.08.2020 14:00:00 35,6 7,7 8 4 ENE 1012,5 20
10.08.2020 13:00:00 - - - - - - -
10.08.2020 12:00:00 - - - - - - -
10.08.2020 11:00:00 30,2 12,2 4 2 N 1013,5 20
10.08.2020 10:00:00 - - - - - - -
10.08.2020 09:00:00 - - - - - - -
10.08.2020 08:00:00 20,0 14,6 5 3 NW 1014,2 20
10.08.2020 07:00:00 - - - - - - -
10.08.2020 06:00:00 - - - - - - -
10.08.2020 05:00:00 - - - - - - -
10.08.2020 04:00:00 - - - - - - -
10.08.2020 03:00:00 - - - - - - -
10.08.2020 02:00:00 - - - - - - -
10.08.2020 01:00:00 - - - - - - -
10.08.2020 00:00:00 - - - - - - -
09.08.2020 23:00:00 - - - - - - -
09.08.2020 22:00:00 - - - - - - -
09.08.2020 21:00:00 - - - - - - -

tt = temperature
td = dewpoint
ff = wind speed
dd = wind direction
ppp = reduced air pressure
vv = visibility

Next stations